Starlink 6212

operational
NORAD ID: 57330 Int'l Des: 2023-099 Owner: SPXS Country: US Constellation: starlink
LEOCIRCULAR

关于 Starlink 6212

正在加载描述...

实时位置

正在加载3D地球...

即将过境

高度历史

Altitude vs Time

uPlot chart will show altitude changes over time

两行轨道根数

1 57330U 23099C 25258.32410813 .00005452 00000-0 41842-3 0 9993
2 57330 43.0039 122.1556 0000742 273.8836 86.1922 15.02530771119731
Epoch: Sep 15, 2025 • Age: 17 hours

当前状态

高度 571.8 km
速度 7.58 km/s
星下点 -42.70°S, 9.3°E
发射日期 Jul 16, 2023
运行时间 2.1 years
类型 internet

技术详情

分类 Payload
质量 305.00 kg
干质量 290.00 kg
总质量 305.00 kg
长度 0.20 m
直径 2.80 m
跨度 9.00 m
形状 Box + pan
制造商 SPXS
平台类型 Starlink
阶段状态 In Orbit
所有者/国家 SPXS/US

大型星座

Loading constellations...